Simultaneous Nadir Overpasses (SNOs) Predictions

Prediction of SNOs between METOP-A and TERRA Satellite Orbit:

Table of predicted SNOs for the next 14.0 days since TLE Epoch: 9/26/2015
Index Date (METOP-A) Time (METOP-A) Lat,Lon (METOP-A) SZA (METOP-A ) Date (TERRA) Time (TERRA) Lat,Lon (TERRA) SZA (TERRA ) Distance(km) Time Diff (sec)
1 09/28/2015 20:34:14 81.36, -80.73 86.58 09/28/2015 20:35:19 81.36, -80.56 86.63 2.86 65
2 09/28/2015 21:24:53 -81.36, 87.24 93.34 09/28/2015 21:24:45 -81.37, 87.39 93.32 2.75 8
3 10/01/2015 16:08:32 81.36, -13.78 87.76 10/01/2015 16:09:28 81.37, -13.92 87.77 2.31 56
4 10/01/2015 16:59:12 -81.36, 153.80 92.21 10/01/2015 16:58:55 -81.36, 153.67 92.23 2.26 17
5 10/04/2015 11:42:53 81.36, 52.34 88.83 10/04/2015 11:43:39 81.35, 52.28 88.84 1.30 46
6 10/
